User: anonymous   Login
Location: Caltech
(34.1382°N, 118.1253°W)
Time: 15:20:28
(UTC-07:00)
Language:

Iridium 94 - Orbit

View from above orbital plane
View from above orbital plane
View from above satellite
View from above satellite

Ground track
Ground track

The orbit data is extracted from the following two-line orbital elements,

1 27374U 02005C   15244.30277277  .00000268  00000-0  88803-4 0  9998
2 27374  86.4017 169.4852 0003428  66.9425  45.5942 14.34215342722082
Epoch (UTC): 01 September 2015 07:15:59
Eccentricity: 0.0003428
inclination: 86.4017°
perigee height: 775 km
apogee height: 780 km
right ascension of ascending node: 169.4852°
argument of perigee: 66.9425°
revolutions per day: 14.34215342
mean anomaly at epoch: 45.5942°
orbit number at epoch: 72208

The dashed part of the orbit path shows where the satellite is in the earth's shadow,  

DLR